| time (UTC) | temp F | wind direction | speed MPH | gust MPH | rain 1hr in | rain 24hr in | rain mn in | humidity % | barometer mb |
| 20260508113238 | 55 | 158 | 0.0 | 0.0 | 0.00 | 0.00 | 0.00 | 83 | |
| 20260508112741 | 55 | 157 | 0.0 | 0.0 | 0.00 | 0.00 | 0.00 | 83 | |
| 20260508112243 | 56 | 158 | 0.0 | 0.0 | 0.00 | 0.00 | 0.00 | 83 | |
| 20260508111732 | 56 | 158 | 0.0 | 0.0 | 0.00 | 0.00 | 0.00 | 83 | |
| 20260508111254 | 56 | 158 | 0.0 | 0.0 | 0.00 | 0.00 | 0.00 | 83 | |
| 20260508110753 | 56 | 158 | 0.0 | 0.0 | 0.00 | 0.00 | 0.00 | 83 | |
| 20260508110233 | 56 | 158 | 0.0 | 0.0 | 0.00 | 0.00 | 0.00 | 83 | |
| 20260508105733 | 56 | 158 | 0.0 | 0.0 | 0.00 | 0.00 | 0.00 | 83 | |
| 20260508105258 | 56 | 158 | 0.0 | 0.0 | 0.00 | 0.00 | 0.00 | 83 | |
| 20260508104734 | 56 | 158 | 0.0 | 0.0 | 0.00 | 0.00 | 0.00 | 83 | |
| 20260508104255 | 56 | 158 | 0.0 | 0.0 | 0.00 | 0.00 | 0.00 | 83 | |
| 20260508103755 | 57 | 158 | 0.0 | 0.0 | 0.00 | 0.00 | 0.00 | 83 | |
| 20260508103235 | 57 | 158 | 0.0 | 0.0 | 0.00 | 0.00 | 0.00 | 83 | |
| 20260508102755 | 58 | 158 | 0.0 | 0.0 | 0.00 | 0.00 | 0.00 | 83 | |
| 20260508102318 | 58 | 158 | 0.0 | 0.0 | 0.00 | 0.00 | 0.00 | 83 | |
| 20260508101731 | 58 | 158 | 0.0 | 0.0 | 0.00 | 0.00 | 0.00 | 83 | |
| 20260508101254 | 58 | 158 | 0.0 | 0.0 | 0.00 | 0.00 | 0.00 | 83 | |
| 20260508100756 | 58 | 158 | 0.0 | 0.0 | 0.00 | 0.00 | 0.00 | 82 | |
| 20260508100234 | 58 | 158 | 0.0 | 0.0 | 0.00 | 0.00 | 0.00 | 83 | |
| 20260508095734 | 58 | 152 | 0.0 | 0.0 | 0.00 | 0.00 | 0.00 | 82 | |
| 20260508095253 | 58 | 152 | 0.0 | 1.0 | 0.00 | 0.00 | 0.00 | 82 | |
| 20260508094814 | 58 | 152 | 0.0 | 2.0 | 0.00 | 0.00 | 0.00 | 82 | |
| 20260508094237 | 58 | 152 | 1.0 | 2.0 | 0.00 | 0.00 | 0.00 | 82 | |
| 20260508093758 | 58 | 152 | 0.0 | 2.0 | 0.00 | 0.00 | 0.00 | 82 | |
| 20260508093239 | 59 | 152 | 0.0 | 1.0 | 0.00 | 0.00 | 0.00 | 81 | |
| 20260508092733 | 59 | 152 | 0.0 | 0.0 | 0.00 | 0.00 | 0.00 | 81 | |
| 20260508092233 | 59 | 152 | 0.0 | 0.0 | 0.00 | 0.00 | 0.00 | 81 | |
| 20260508091737 | 59 | 152 | 0.0 | 2.0 | 0.00 | 0.00 | 0.00 | 81 | |
| 20260508091258 | 59 | 152 | 0.0 | 2.0 | 0.00 | 0.00 | 0.00 | 80 | |
| 20260508090738 | 59 | 130 | 1.0 | 2.0 | 0.00 | 0.00 | 0.00 | 80 | |
| 20260508090233 | 59 | 122 | 0.0 | 3.0 | 0.00 | 0.00 | 0.00 | 80 | |
| 20260508085736 | 59 | 119 | 1.0 | 3.0 | 0.00 | 0.00 | 0.00 | 80 | |
| 20260508085237 | 59 | 120 | 1.0 | 2.0 | 0.00 | 0.00 | 0.00 | 80 | |
| 20260508084755 | 59 | 120 | 1.0 | 3.0 | 0.00 | 0.00 | 0.00 | 80 | |
| 20260508084256 | 59 | 102 | 1.0 | 3.0 | 0.00 | 0.00 | 0.00 | 80 | |
| 20260508083736 | 60 | 77 | 1.0 | 4.0 | 0.00 | 0.00 | 0.00 | 80 | |
| 20260508083239 | 60 | 74 | 2.0 | 4.0 | 0.00 | 0.00 | 0.00 | 80 | |
| 20260508082755 | 60 | 100 | 2.0 | 6.0 | 0.00 | 0.00 | 0.00 | 80 | |
| 20260508082237 | 60 | 90 | 4.0 | 6.0 | 0.00 | 0.00 | 0.00 | 79 | |
| 20260508081756 | 60 | 87 | 4.0 | 6.0 | 0.00 | 0.00 | 0.00 | 79 | |
| 20260508081259 | 60 | 78 | 3.0 | 5.0 | 0.00 | 0.00 | 0.00 | 79 | |
| 20260508080800 | 60 | 93 | 4.0 | 7.0 | 0.00 | 0.00 | 0.00 | 79 | |
| 20260508080235 | 60 | 87 | 3.0 | 7.0 | 0.00 | 0.00 | 0.00 | 79 | |
| 20260508075732 | 60 | 104 | 3.0 | 7.0 | 0.00 | 0.00 | 0.00 | 78 | |
| 20260508075236 | 61 | 95 | 3.0 | 5.0 | 0.00 | 0.00 | 0.00 | 78 | |
| 20260508074756 | 61 | 105 | 3.0 | 5.0 | 0.00 | 0.00 | 0.00 | 78 | |
| 20260508074239 | 61 | 91 | 3.0 | 5.0 | 0.00 | 0.00 | 0.00 | 77 | |
| 20260508073740 | 61 | 63 | 3.0 | 6.0 | 0.00 | 0.00 | 0.00 | 77 | |
| 20260508073253 | 61 | 62 | 3.0 | 5.0 | 0.00 | 0.00 | 0.00 | 76 | |
| 20260508072732 | 61 | 76 | 4.0 | 5.0 | 0.00 | 0.00 | 0.00 | 76 | |
| 20260508072253 | 61 | 84 | 5.0 | 6.0 | 0.00 | 0.00 | 0.00 | 75 | |
| 20260508071732 | 62 | 114 | 4.0 | 7.0 | 0.00 | 0.00 | 0.00 | 75 | |
| 20260508071237 | 62 | 87 | 4.0 | 7.0 | 0.00 | 0.00 | 0.00 | 75 | |
| 20260508070735 | 62 | 80 | 2.0 | 6.0 | 0.00 | 0.00 | 0.00 | 74 | |
| 20260508070254 | 62 | 77 | 4.0 | 6.0 | 0.00 | 0.00 | 0.00 | 74 | |
| 20260508065754 | 62 | 80 | 3.0 | 6.0 | 0.00 | 0.00 | 0.00 | 74 | |
| 20260508065233 | 62 | 34 | 3.0 | 6.0 | 0.00 | 0.00 | 0.00 | 74 | |
| 20260508064735 | 62 | 43 | 3.0 | 5.0 | 0.00 | 0.00 | 0.00 | 74 | |
| 20260508064237 | 62 | 58 | 2.0 | 8.0 | 0.00 | 0.00 | 0.00 | 74 | |
| 20260508063756 | 62 | 87 | 5.0 | 7.0 | 0.00 | 0.00 | 0.00 | 74 | |
| 20260508063255 | 62 | 44 | 3.0 | 7.0 | 0.00 | 0.00 | 0.00 | 74 | |
| 20260508062753 | 63 | 96 | 4.0 | 7.0 | 0.00 | 0.00 | 0.00 | 74 | |
| 20260508062249 | 63 | 89 | 4.0 | 6.0 | 0.00 | 0.00 | 0.00 | 74 | |
| 20260508061751 | 63 | 52 | 3.0 | 6.0 | 0.00 | 0.00 | 0.00 | 74 | |
| 20260508061318 | 63 | 95 | 2.0 | 4.0 | 0.00 | 0.00 | 0.00 | 73 | |
| 20260508060736 | 63 | 75 | 3.0 | 7.0 | 0.00 | 0.00 | 0.00 | 73 | |
| 20260508060233 | 63 | 85 | 4.0 | 7.0 | 0.00 | 0.00 | 0.00 | 73 | |
| 20260508055734 | 63 | 86 | 5.0 | 7.0 | 0.00 | 0.00 | 0.00 | 72 | |
| 20260508055250 | 63 | 135 | 3.0 | 7.0 | 0.00 | 0.00 | 0.00 | 72 | |
| 20260508054750 | 64 | 81 | 3.0 | 7.0 | 0.00 | 0.00 | 0.00 | 72 | |
| 20260508054234 | 64 | 80 | 2.0 | 7.0 | 0.00 | 0.00 | 0.00 | 71 | |
| 20260508053737 | 64 | 88 | 2.0 | 6.0 | 0.00 | 0.00 | 0.00 | 71 | |
| 20260508053254 | 64 | 112 | 3.0 | 6.0 | 0.00 | 0.00 | 0.00 | 71 | |
| 20260508052753 | 65 | 72 | 3.0 | 5.0 | 0.00 | 0.00 | 0.00 | 70 | |
| 20260508052251 | 65 | 44 | 3.0 | 5.0 | 0.00 | 0.00 | 0.00 | 70 | |
| 20260508051753 | 65 | 76 | 3.0 | 5.0 | 0.00 | 0.00 | 0.00 | 70 | |
| 20260508051256 | 65 | 43 | 3.0 | 6.0 | 0.00 | 0.00 | 0.00 | 69 | |
| 20260508050753 | 65 | 73 | 3.0 | 7.0 | 0.00 | 0.00 | 0.00 | 69 | |
| 20260508050252 | 66 | 81 | 5.0 | 7.0 | 0.00 | 0.00 | 0.00 | 68 | |
| 20260508045754 | 66 | 93 | 4.0 | 5.0 | 0.00 | 0.00 | 0.00 | 68 | |
| 20260508045250 | 66 | 97 | 4.0 | 7.0 | 0.00 | 0.00 | 0.00 | 67 | |
| 20260508044752 | 66 | 81 | 4.0 | 7.0 | 0.00 | 0.00 | 0.00 | 67 | |
| 20260508044236 | 67 | 87 | 4.0 | 7.0 | 0.00 | 0.00 | 0.00 | 66 | |
| 20260508043734 | 67 | 89 | 5.0 | 7.0 | 0.00 | 0.00 | 0.00 | 65 | |
| 20260508043232 | 67 | 91 | 4.0 | 6.0 | 0.00 | 0.00 | 0.00 | 65 | |
| 20260508042810 | 68 | 97 | 4.0 | 7.0 | 0.00 | 0.00 | 0.00 | 64 | |
| 20260508042251 | 68 | 68 | 4.0 | 8.0 | 0.00 | 0.00 | 0.00 | 64 | |
| 20260508041753 | 68 | 83 | 4.0 | 8.0 | 0.00 | 0.00 | 0.00 | 64 | |
| 20260508041237 | 68 | 95 | 4.0 | 8.0 | 0.00 | 0.00 | 0.00 | 63 | |
| 20260508040740 | 69 | 77 | 5.0 | 7.0 | 0.00 | 0.00 | 0.00 | 63 | |
| 20260508040304 | 69 | 85 | 3.0 | 7.0 | 0.00 | 0.00 | 0.00 | 63 | |
| 20260508035739 | 69 | 120 | 3.0 | 7.0 | 0.00 | 0.00 | 0.00 | 62 | |
| 20260508035253 | 69 | 33 | 2.0 | 7.0 | 0.00 | 0.00 | 0.00 | 62 | |
| 20260508034754 | 69 | 137 | 3.0 | 7.0 | 0.00 | 0.00 | 0.00 | 62 | |
| 20260508034237 | 70 | 82 | 3.0 | 7.0 | 0.00 | 0.00 | 0.00 | 61 | |
| 20260508033740 | 70 | 106 | 3.0 | 7.0 | 0.00 | 0.00 | 0.00 | 61 | |
| 20260508033231 | 70 | 95 | 3.0 | 7.0 | 0.00 | 0.00 | 0.00 | 60 | |
| 20260508032733 | 71 | 112 | 4.0 | 7.0 | 0.00 | 0.00 | 0.00 | 59 | |
| 20260508032232 | 71 | 99 | 2.0 | 4.0 | 0.00 | 0.00 | 0.00 | 59 | |
| 20260508031733 | 71 | 85 | 2.0 | 6.0 | 0.00 | 0.00 | 0.00 | 58 | |
| 20260508031239 | 71 | 349 | 3.0 | 6.0 | 0.00 | 0.00 | 0.00 | 56 | |
| 20260508030740 | 72 | 10 | 3.0 | 6.0 | 0.00 | 0.00 | 0.00 | 55 | |
| 20260508030243 | 72 | 21 | 4.0 | 6.0 | 0.00 | 0.00 | 0.00 | 55 | |
| 20260508025801 | 72 | 29 | 3.0 | 6.0 | 0.00 | 0.00 | 0.00 | 54 | |
| 20260508025248 | 72 | 335 | 4.0 | 6.0 | 0.00 | 0.00 | 0.00 | 54 | |
| 20260508024751 | 73 | 326 | 2.0 | 6.0 | 0.00 | 0.00 | 0.00 | 53 | |
| 20260508024236 | 73 | 312 | 2.0 | 5.0 | 0.00 | 0.00 | 0.00 | 52 | |
| 20260508023736 | 74 | 305 | 3.0 | 5.0 | 0.00 | 0.00 | 0.00 | 51 | |
| 20260508023304 | 74 | 253 | 0.0 | 2.0 | 0.00 | 0.00 | 0.00 | 51 | |
| 20260508022800 | 75 | 253 | 0.0 | 2.0 | 0.00 | 0.00 | 0.00 | 51 | |
| 20260508022315 | 75 | 247 | 1.0 | 4.0 | 0.00 | 0.00 | 0.00 | 50 | |
| 20260508021816 | 75 | 292 | 2.0 | 5.0 | 0.00 | 0.00 | 0.00 | 50 | |
| 20260508021239 | 76 | 301 | 2.0 | 7.0 | 0.00 | 0.00 | 0.00 | 50 | |
| 20260508020740 | 76 | 290 | 3.0 | 7.0 | 0.00 | 0.00 | 0.00 | 49 | |
| 20260508020242 | 76 | 276 | 2.0 | 7.0 | 0.00 | 0.00 | 0.00 | 49 | |
| 20260508015757 | 76 | 307 | 1.0 | 6.0 | 0.00 | 0.00 | 0.00 | 49 | |
| 20260508015251 | 76 | 314 | 4.0 | 9.0 | 0.00 | 0.00 | 0.00 | 48 | |
| 20260508014812 | 77 | 281 | 2.0 | 9.0 | 0.00 | 0.00 | 0.00 | 48 | |
| 20260508014252 | 77 | 321 | 4.0 | 8.0 | 0.00 | 0.00 | 0.00 | 48 | |
| 20260508013733 | 77 | 328 | 4.0 | 9.0 | 0.00 | 0.00 | 0.00 | 48 | |
| 20260508013252 | 77 | 314 | 6.0 | 10.0 | 0.00 | 0.00 | 0.00 | 47 | |
| 20260508012733 | 78 | 301 | 6.0 | 10.0 | 0.00 | 0.00 | 0.00 | 46 | |
| 20260508012250 | 78 | 299 | 4.0 | 10.0 | 0.00 | 0.00 | 0.00 | 46 | |
| 20260508011731 | 79 | 314 | 6.0 | 10.0 | 0.00 | 0.00 | 0.00 | 44 | |
| 20260508011244 | 80 | 288 | 5.0 | 10.0 | 0.00 | 0.00 | 0.00 | 43 | |
| 20260508010744 | 81 | 286 | 5.0 | 10.0 | 0.00 | 0.00 | 0.00 | 42 | |
| 20260508010232 | 81 | 301 | 3.0 | 11.0 | 0.00 | 0.00 | 0.00 | 42 | |
| 20260508005735 | 81 | 258 | 5.0 | 10.0 | 0.00 | 0.00 | 0.00 | 42 | |
| 20260508005312 | 81 | 278 | 4.0 | 11.0 | 0.00 | 0.00 | 0.00 | 41 | |
| 20260508004814 | 81 | 296 | 6.0 | 11.0 | 0.00 | 0.00 | 0.00 | 41 | |
| 20260508004258 | 82 | 315 | 6.0 | 10.0 | 0.00 | 0.00 | 0.00 | 40 | |
| 20260508003735 | 82 | 318 | 3.0 | 8.0 | 0.00 | 0.00 | 0.00 | 40 | |
| 20260508003235 | 83 | 255 | 6.0 | 9.0 | 0.00 | 0.00 | 0.00 | 39 | |
| 20260508002735 | 83 | 278 | 6.0 | 11.0 | 0.00 | 0.00 | 0.00 | 39 | |
| 20260508002236 | 83 | 281 | 4.0 | 8.0 | 0.00 | 0.00 | 0.00 | 38 | |
| 20260508001758 | 83 | 328 | 4.0 | 8.0 | 0.00 | 0.00 | 0.00 | 37 | |
| 20260508001258 | 84 | 278 | 4.0 | 9.0 | 0.00 | 0.00 | 0.00 | 37 | |
| 20260508000735 | 84 | 350 | 5.0 | 10.0 | 0.00 | 0.00 | 0.00 | 37 | |
| 20260508000252 | 84 | 277 | 5.0 | 10.0 | 0.00 | 0.00 | 0.00 | 37 | |
| 20260507235732 | 84 | 314 | 5.0 | 10.0 | 0.00 | 0.00 | 0.00 | 37 | |
| 20260507235255 | 85 | 282 | 6.0 | 10.0 | 0.00 | 0.00 | 0.00 | 37 | |
| 20260507234755 | 85 | 318 | 3.0 | 8.0 | 0.00 | 0.00 | 0.00 | 37 | |
| 20260507234235 | 85 | 272 | 4.0 | 8.0 | 0.00 | 0.00 | 0.00 | 37 | |
| 20260507233736 | 85 | 206 | 4.0 | 7.0 | 0.00 | 0.00 | 0.00 | 37 | |
| 20260507233242 | 84 | 162 | 2.0 | 9.0 | 0.00 | 0.00 | 0.00 | 39 | |
| 20260507232742 | 83 | 316 | 5.0 | 9.0 | 0.00 | 0.00 | 0.00 | 39 | |
| 20260507232318 | 83 | 289 | 5.0 | 10.0 | 0.00 | 0.00 | 0.00 | 39 | |
| 20260507231732 | 83 | 313 | 6.0 | 10.0 | 0.00 | 0.00 | 0.00 | 39 | |
| 20260507231242 | 84 | 272 | 5.0 | 11.0 | 0.00 | 0.00 | 0.00 | 39 | |
| 20260507230804 | 84 | 341 | 7.0 | 11.0 | 0.00 | 0.00 | 0.00 | 39 | |
| 20260507230259 | 84 | 310 | 5.0 | 13.0 | 0.00 | 0.00 | 0.00 | 39 | |
| 20260507225740 | 84 | 341 | 6.0 | 12.0 | 0.00 | 0.00 | 0.00 | 39 | |
| 20260507225240 | 84 | 272 | 6.0 | 12.0 | 0.00 | 0.00 | 0.00 | 39 | |
| 20260507224740 | 84 | 331 | 7.0 | 12.0 | 0.00 | 0.00 | 0.00 | 38 | |
| 20260507224315 | 84 | 299 | 6.0 | 12.0 | 0.00 | 0.00 | 0.00 | 39 | |
| 20260507223736 | 84 | 301 | 7.0 | 12.0 | 0.00 | 0.00 | 0.00 | 39 | |
| 20260507223233 | 84 | 310 | 6.0 | 13.0 | 0.00 | 0.00 | 0.00 | 40 | |
| 20260507222734 | 85 | 293 | 8.0 | 13.0 | 0.00 | 0.00 | 0.00 | 39 | |
| 20260507222245 | 86 | 327 | 8.0 | 13.0 | 0.00 | 0.00 | 0.00 | 38 | |
| 20260507221748 | 86 | 337 | 6.0 | 14.0 | 0.00 | 0.00 | 0.00 | 38 | |
| 20260507221232 | 86 | 312 | 5.0 | 11.0 | 0.00 | 0.00 | 0.00 | 39 | |
| 20260507220733 | 86 | 294 | 5.0 | 13.0 | 0.00 | 0.00 | 0.00 | 38 | |
| 20260507220252 | 87 | 345 | 7.0 | 13.0 | 0.00 | 0.00 | 0.00 | 38 | |
| 20260507215733 | 87 | 316 | 6.0 | 12.0 | 0.00 | 0.00 | 0.00 | 38 | |
| 20260507215254 | 88 | 249 | 7.0 | 10.0 | 0.00 | 0.00 | 0.00 | 38 | |
| 20260507214818 | 88 | 269 | 5.0 | 11.0 | 0.00 | 0.00 | 0.00 | 37 | |
| 20260507214239 | 89 | 330 | 6.0 | 11.0 | 0.00 | 0.00 | 0.00 | 37 | |
| 20260507213739 | 88 | 258 | 5.0 | 9.0 | 0.00 | 0.00 | 0.00 | 38 | |
| 20260507213241 | 88 | 284 | 4.0 | 9.0 | 0.00 | 0.00 | 0.00 | 38 | |
| 20260507212739 | 88 | 283 | 4.0 | 8.0 | 0.00 | 0.00 | 0.00 | 39 | |
| 20260507212242 | 87 | 239 | 2.0 | 7.0 | 0.00 | 0.00 | 0.00 | 39 | |
| 20260507211741 | 86 | 312 | 3.0 | 6.0 | 0.00 | 0.00 | 0.00 | 41 | |
| 20260507211239 | 85 | 318 | 3.0 | 7.0 | 0.00 | 0.00 | 0.00 | 41 | |
| 20260507210800 | 85 | 178 | 3.0 | 5.0 | 0.00 | 0.00 | 0.00 | 41 | |
| 20260507210239 | 85 | 228 | 4.0 | 5.0 | 0.00 | 0.00 | 0.00 | 41 | |
| 20260507205734 | 85 | 73 | 2.0 | 7.0 | 0.00 | 0.00 | 0.00 | 42 | |
| 20260507205256 | 85 | 192 | 3.0 | 7.0 | 0.00 | 0.00 | 0.00 | 41 | |
| 20260507204735 | 85 | 317 | 1.0 | 7.0 | 0.00 | 0.00 | 0.00 | 41 | |
| 20260507204305 | 84 | 359 | 3.0 | 7.0 | 0.00 | 0.00 | 0.00 | 41 | |
| 20260507203740 | 84 | 158 | 3.0 | 8.0 | 0.00 | 0.00 | 0.00 | 41 | |
| 20260507203232 | 84 | 116 | 5.0 | 8.0 | 0.00 | 0.00 | 0.00 | 40 | |
| 20260507202811 | 84 | 120 | 3.0 | 9.0 | 0.00 | 0.00 | 0.00 | 40 | |
| 20260507202254 | 84 | 113 | 5.0 | 8.0 | 0.00 | 0.00 | 0.00 | 39 | |
| 20260507201734 | 84 | 61 | 4.0 | 6.0 | 0.00 | 0.00 | 0.00 | 39 | |
| 20260507201240 | 84 | 112 | 3.0 | 7.0 | 0.00 | 0.00 | 0.00 | 40 | |
| 20260507200740 | 84 | 140 | 3.0 | 7.0 | 0.00 | 0.00 | 0.00 | 39 | |
| 20260507200235 | 84 | 43 | 5.0 | 7.0 | 0.00 | 0.00 | 0.00 | 39 | |
| 20260507195736 | 83 | 104 | 3.0 | 9.0 | 0.00 | 0.00 | 0.00 | 40 | |
| 20260507195235 | 83 | 105 | 5.0 | 9.0 | 0.00 | 0.00 | 0.00 | 40 | |
| 20260507194756 | 83 | 95 | 3.0 | 7.0 | 0.00 | 0.00 | 0.00 | 40 | |
| 20260507194238 | 83 | 238 | 3.0 | 8.0 | 0.00 | 0.00 | 0.00 | 42 | |
| 20260507193738 | 82 | 120 | 3.0 | 7.0 | 0.00 | 0.00 | 0.00 | 42 | |
| 20260507193238 | 81 | 67 | 2.0 | 9.0 | 0.00 | 0.00 | 0.00 | 42 | |
| 20260507192731 | 82 | 91 | 4.0 | 9.0 | 0.00 | 0.00 | 0.00 | 42 | |
| 20260507192252 | 81 | 87 | 3.0 | 8.0 | 0.00 | 0.00 | 0.00 | 42 | |
| 20260507191751 | 81 | 249 | 2.0 | 7.0 | 0.00 | 0.00 | 0.00 | 42 | |
| 20260507191254 | 81 | 159 | 4.0 | 7.0 | 0.00 | 0.00 | 0.00 | 43 | |
| 20260507190733 | 80 | 329 | 2.0 | 7.0 | 0.00 | 0.00 | 0.00 | 43 | |
| 20260507190252 | 80 | 96 | 3.0 | 7.0 | 0.00 | 0.00 | 0.00 | 43 | |
| 20260507185750 | 80 | 160 | 4.0 | 7.0 | 0.00 | 0.00 | 0.00 | 43 | |
| 20260507185231 | 79 | 115 | 4.0 | 7.0 | 0.00 | 0.00 | 0.00 | 44 | |
| 20260507184810 | 79 | 135 | 2.0 | 6.0 | 0.00 | 0.00 | 0.00 | 44 | |
| 20260507184316 | 79 | 204 | 3.0 | 8.0 | 0.00 | 0.00 | 0.00 | 45 | |
| 20260507183752 | 79 | 90 | 3.0 | 7.0 | 0.00 | 0.00 | 0.00 | 44 | |
| 20260507183252 | 79 | 104 | 3.0 | 6.0 | 0.00 | 0.00 | 0.00 | 45 | |
| 20260507182733 | 78 | 121 | 3.0 | 6.0 | 0.00 | 0.00 | 0.00 | 45 | |
| 20260507182240 | 78 | 79 | 3.0 | 7.0 | 0.00 | 0.00 | 0.00 | 46 | |
| 20260507181741 | 78 | 89 | 4.0 | 8.0 | 0.00 | 0.00 | 0.00 | 45 | |
| 20260507181309 | 78 | 79 | 3.0 | 8.0 | 0.00 | 0.00 | 0.00 | 45 | |
| 20260507180744 | 78 | 359 | 1.0 | 7.0 | 0.00 | 0.00 | 0.00 | 47 | |
| 20260507180316 | 77 | 137 | 3.0 | 8.0 | 0.00 | 0.00 | 0.00 | 47 | |
| 20260507175733 | 76 | 71 | 3.0 | 8.0 | 0.00 | 0.00 | 0.00 | 48 | |
| 20260507175242 | 76 | 77 | 2.0 | 7.0 | 0.00 | 0.00 | 0.00 | 48 | |
| 20260507174803 | 76 | 45 | 3.0 | 7.0 | 0.00 | 0.00 | 0.00 | 48 | |
| 20260507174231 | 75 | 63 | 3.0 | 6.0 | 0.00 | 0.00 | 0.00 | 49 | |
| 20260507173732 | 75 | 63 | 3.0 | 5.0 | 0.00 | 0.00 | 0.00 | 50 | |
| 20260507173251 | 75 | 210 | 2.0 | 5.0 | 0.00 | 0.00 | 0.00 | 50 | |
| 20260507172752 | 75 | 64 | 2.0 | 5.0 | 0.00 | 0.00 | 0.00 | 50 | |
| 20260507172232 | 74 | 26 | 2.0 | 5.0 | 0.00 | 0.00 | 0.00 | 51 | |
| 20260507171754 | 74 | 49 | 1.0 | 5.0 | 0.00 | 0.00 | 0.00 | 51 | |
| 20260507171254 | 74 | 56 | 3.0 | 5.0 | 0.00 | 0.00 | 0.00 | 50 | |
| 20260507170732 | 74 | 127 | 3.0 | 5.0 | 0.00 | 0.00 | 0.00 | 51 | |
| 20260507170253 | 73 | 84 | 1.0 | 3.0 | 0.00 | 0.00 | 0.00 | 53 | |
| 20260507165733 | 72 | 276 | 1.0 | 4.0 | 0.00 | 0.00 | 0.00 | 54 | |
| 20260507165238 | 72 | 106 | 3.0 | 6.0 | 0.00 | 0.00 | 0.00 | 53 | |
| 20260507164800 | 72 | 87 | 4.0 | 6.0 | 0.00 | 0.00 | 0.00 | 53 | |
| 20260507164234 | 72 | 28 | 2.0 | 4.0 | 0.00 | 0.00 | 0.00 | 54 | |
| 20260507163748 | 71 | 359 | 1.0 | 4.0 | 0.00 | 0.00 | 0.00 | 55 | |
| 20260507163251 | 71 | 108 | 2.0 | 5.0 | 0.00 | 0.00 | 0.00 | 54 | |
| 20260507162812 | 71 | 27 | 3.0 | 4.0 | 0.00 | 0.00 | 0.00 | 55 | |
| 20260507162232 | 71 | 99 | 2.0 | 3.0 | 0.00 | 0.00 | 0.00 | 57 | |
| 20260507161730 | 70 | 230 | 1.0 | 4.0 | 0.00 | 0.00 | 0.00 | 58 | |
| 20260507161250 | 69 | 235 | 0.0 | 4.0 | 0.00 | 0.00 | 0.00 | 58 | |
| 20260507160732 | 69 | 307 | 1.0 | 4.0 | 0.00 | 0.00 | 0.00 | 58 | |
| 20260507160233 | 69 | 103 | 1.0 | 3.0 | 0.00 | 0.00 | 0.00 | 60 | |
| 20260507155731 | 68 | 216 | 1.0 | 3.0 | 0.00 | 0.00 | 0.00 | 61 | |
| 20260507155300 | 67 | 216 | 1.0 | 3.0 | 0.00 | 0.00 | 0.00 | 62 | |
| 20260507154740 | 67 | 255 | 1.0 | 3.0 | 0.00 | 0.00 | 0.00 | 64 | |
| 20260507154231 | 66 | 236 | 2.0 | 4.0 | 0.00 | 0.00 | 0.00 | 65 | |
| 20260507153752 | 65 | 239 | 2.0 | 4.0 | 0.00 | 0.00 | 0.00 | 66 | |
| 20260507153251 | 65 | 218 | 2.0 | 4.0 | 0.00 | 0.00 | 0.00 | 67 | |
| 20260507152751 | 64 | 215 | 1.0 | 3.0 | 0.00 | 0.00 | 0.00 | 67 | |
| 20260507152235 | 64 | 229 | 0.0 | 3.0 | 0.00 | 0.00 | 0.00 | 67 | |
| 20260507151757 | 64 | 228 | 1.0 | 3.0 | 0.00 | 0.00 | 0.00 | 68 | |
| 20260507151255 | 64 | 214 | 1.0 | 4.0 | 0.00 | 0.00 | 0.00 | 68 | |
| 20260507150736 | 64 | 239 | 1.0 | 4.0 | 0.00 | 0.00 | 0.00 | 68 | |
| 20260507150244 | 63 | 228 | 2.0 | 3.0 | 0.00 | 0.00 | 0.00 | 69 | |
| 20260507145732 | 63 | 228 | 2.0 | 3.0 | 0.00 | 0.00 | 0.00 | 69 | |
| 20260507145241 | 63 | 231 | 1.0 | 3.0 | 0.00 | 0.00 | 0.00 | 70 | |
| 20260507144801 | 63 | 207 | 0.0 | 3.0 | 0.00 | 0.00 | 0.00 | 71 | |
| 20260507144248 | 62 | 196 | 2.0 | 3.0 | 0.00 | 0.00 | 0.00 | 72 | |
| 20260507143745 | 62 | 224 | 1.0 | 3.0 | 0.00 | 0.00 | 0.00 | 73 | |
| 20260507143247 | 61 | 251 | 0.0 | 0.0 | 0.00 | 0.00 | 0.00 | 74 | |
| 20260507142748 | 61 | 251 | 0.0 | 0.0 | 0.00 | 0.00 | 0.00 | 75 | |
| 20260507142231 | 61 | 354 | 0.0 | 0.0 | 0.00 | 0.00 | 0.00 | 76 | |
| 20260507141752 | 61 | 354 | 0.0 | 0.0 | 0.00 | 0.00 | 0.00 | 78 | |
| 20260507141231 | 60 | 354 | 0.0 | 0.0 | 0.00 | 0.00 | 0.00 | 80 | |
| 20260507140734 | 58 | 354 | 0.0 | 0.0 | 0.00 | 0.00 | 0.00 | 81 | |
| 20260507140233 | 58 | 354 | 0.0 | 0.0 | 0.00 | 0.00 | 0.00 | 81 | |
| 20260507135754 | 57 | 354 | 0.0 | 0.0 | 0.00 | 0.00 | 0.00 | 82 | |
| 20260507135231 | 57 | 354 | 0.0 | 0.0 | 0.00 | 0.00 | 0.00 | 82 | |
| 20260507134733 | 56 | 354 | 0.0 | 0.0 | 0.00 | 0.00 | 0.00 | 82 | |
| 20260507134236 | 55 | 354 | 0.0 | 1.0 | 0.00 | 0.00 | 0.00 | 82 | |
| 20260507133738 | 55 | 320 | 0.0 | 1.0 | 0.00 | 0.00 | 0.00 | 82 | |
| 20260507133309 | 55 | 320 | 0.0 | 1.0 | 0.00 | 0.00 | 0.00 | 82 | |
| 20260507132750 | 54 | 324 | 0.0 | 2.0 | 0.00 | 0.00 | 0.00 | 82 | |
| 20260507132252 | 54 | 324 | 0.0 | 3.0 | 0.00 | 0.00 | 0.00 | 82 | |
| 20260507131754 | 54 | 328 | 0.0 | 2.0 | 0.00 | 0.00 | 0.00 | 82 | |
| 20260507131238 | 54 | 248 | 0.0 | 0.0 | 0.00 | 0.00 | 0.00 | 82 | |
| 20260507130739 | 54 | 248 | 0.0 | 0.0 | 0.00 | 0.00 | 0.00 | 81 | |
| 20260507130251 | 54 | 233 | 0.0 | 1.0 | 0.00 | 0.00 | 0.00 | 81 | |
| 20260507125807 | 54 | 233 | 0.0 | 1.0 | 0.00 | 0.00 | 0.00 | 81 | |
| 20260507125232 | 54 | 300 | 0.0 | 1.0 | 0.00 | 0.00 | 0.00 | 81 | |
| 20260507124732 | 54 | 300 | 0.0 | 1.0 | 0.00 | 0.00 | 0.00 | 81 | |
| 20260507124240 | 54 | 300 | 0.0 | 0.0 | 0.00 | 0.00 | 0.00 | 81 | |
| 20260507123738 | 54 | 300 | 0.0 | 1.0 | 0.00 | 0.00 | 0.00 | 81 | |
| 20260507123254 | 54 | 300 | 0.0 | 1.0 | 0.00 | 0.00 | 0.00 | 81 | |
| 20260507122736 | 54 | 300 | 0.0 | 1.0 | 0.00 | 0.00 | 0.00 | 81 | |
| 20260507122250 | 55 | 300 | 0.0 | 1.0 | 0.00 | 0.00 | 0.00 | 81 | |
| 20260507121733 | 55 | 300 | 0.0 | 0.0 | 0.00 | 0.00 | 0.00 | 81 | |
| 20260507121249 | 55 | 300 | 0.0 | 1.0 | 0.00 | 0.00 | 0.00 | 81 | |
| 20260507120752 | 55 | 300 | 0.0 | 1.0 | 0.00 | 0.00 | 0.00 | 81 | |
| 20260507120253 | 55 | 300 | 0.0 | 0.0 | 0.00 | 0.00 | 0.00 | 81 | |
| 20260507115735 | 55 | 300 | 0.0 | 0.0 | 0.00 | 0.00 | 0.00 | 80 | |
| 20260507115247 | 55 | 300 | 0.0 | 0.0 | 0.00 | 0.00 | 0.00 | 80 | |
| 20260507114747 | 55 | 300 | 0.0 | 0.0 | 0.00 | 0.00 | 0.00 | 81 | |
| 20260507114253 | 55 | 300 | 0.0 | 0.0 | 0.00 | 0.00 | 0.00 | 80 | |
| 20260507113817 | 55 | 300 | 0.0 | 0.0 | 0.00 | 0.00 | 0.00 | 80 |